Temperature
11 12 13 13 12 11 12 12 14 16 17 18 19 19 18 18 17 18 17 17 17 16 16 16 16 16 16 16 15 16 16 16 16 16 16 16 16 16 16 17 17 17 17 17 17 17 17 17 17
11 12 12 12 11 11 11 13 14 16 18 18 19 19 18 17 17 17 16 16 16 16 16 16 16 16 16 16 16 16 16 16 16 16 16 16 16 16 16 17 17 17 17 17 17 17 17 17 17
11 11 12 10 10 12 12 13 14 16 18 18 18 18 17 17 17 16 16 16 16 16 16 16 16 16 16 16 16 16 16 16 16 16 16 16 16 16 17 17 17 17 18 17 17 17 17 17 17
10 11 11 10 11 11 13 14 15 16 17 18 17 17 17 17 17 16 16 16 16 16 16 15 15 15 16 16 15 16 16 16 16 16 16 16 16 17 17 17 17 18 18 17 17 17 17 17 17
9 10 9 10 11 12 12 14 15 15 16 17 17 16 17 17 17 17 16 15 16 15 15 15 15 15 15 15 15 16 16 16 16 16 16 16 17 17 17 17 17 18 18 17 17 17 17 17 17
9 9 9 10 10 12 13 15 15 15 16 17 17 16 17 17 17 16 16 15 15 15 15 15 15 15 15 15 15 15 16 16 16 16 16 17 17 17 17 17 18 18 17 17 17 17 17 17 17
8 8 9 10 10 11 13 15 15 14 15 16 17 16 16 16 16 16 16 15 15 15 15 15 15 15 15 15 15 15 16 16 16 16 17 17 17 17 17 18 18 17 17 17 17 17 17 17 17
8 8 9 9 10 11 14 15 15 15 15 17 17 16 16 16 16 16 16 15 15 15 15 15 15 15 15 15 15 15 15 16 16 17 17 17 17 17 17 18 17 17 17 17 17 17 17 16 16
8 7 8 9 10 11 13 14 15 16 16 16 17 17 17 16 15 15 15 15 15 15 15 15 15 15 15 15 15 15 15 16 16 16 17 17 17 17 17 17 17 17 17 17 17 17 16 16 16
7 7 8 10 11 11 13 14 14 15 15 15 16 17 16 15 16 15 15 15 15 15 15 15 15 15 15 15 15 15 15 15 16 16 17 17 17 17 17 17 17 17 17 17 16 16 16 16 16
7 7 8 10 11 11 12 13 14 14 14 14 15 15 15 15 15 16 16 16 16 15 15 15 15 15 15 15 15 15 15 15 16 16 16 17 17 17 17 17 17 17 17 17 16 16 16 16 15
6 7 8 9 10 11 11 12 13 13 14 15 16 16 15 15 15 16 16 16 16 16 15 15 15 15 15 15 15 15 15 15 16 16 16 17 17 17 17 17 17 17 17 16 16 16 16 15 15
6 7 8 9 9 10 10 11 12 13 14 15 15 15 15 15 15 16 16 16 16 16 16 16 15 15 15 15 15 15 16 16 16 16 16 16 17 17 17 17 16 16 16 16 16 16 15 15 15
6 7 7 8 9 9 10 10 11 12 13 14 14 15 15 15 15 15 15 15 16 16 16 16 16 16 16 16 16 16 16 16 16 16 16 16 16 16 16 16 16 16 16 15 15 15 15 15 15
6 6 7 8 8 9 10 10 10 11 12 13 14 14 14 15 15 15 15 16 16 16 16 16 16 16 16 16 16 16 16 16 16 16 16 16 16 16 16 16 16 15 15 15 15 15 14 14 14
6 6 6 8 8 9 9 9 10 11 11 12 13 14 14 14 14 15 15 15 16 16 15 16 16 16 16 16 16 16 16 16 16 16 16 16 16 15 15 15 15 15 15 14 14 14 14 14 14
5 5 6 7 8 8 9 9 10 10 11 11 12 13 13 14 14 14 15 15 15 15 15 16 16 16 16 16 16 16 16 16 16 15 15 15 15 15 15 15 14 14 14 14 14 14 14 14 13
5 6 6 7 8 8 8 8 9 10 10 10 11 12 13 13 14 14 14 15 15 15 15 15 15 16 16 16 15 15 15 15 15 15 15 15 15 14 14 14 14 14 14 14 13 13 13 13 13
5 6 6 7 8 8 8 8 9 9 10 10 10 11 12 13 14 14 14 14 14 14 15 15 15 15 15 15 15 15 15 15 15 15 15 15 14 14 14 14 14 13 13 13 13 13 13 13 13
6 6 7 7 8 8 8 8 9 9 9 10 10 11 12 13 13 14 14 14 14 14 14 14 15 15 15 15 15 15 15 15 15 15 15 15 14 14 14 14 14 13 13 13 13 13 13 13 13
6 6 7 7 8 8 8 8 9 9 9 10 11 11 12 13 13 14 14 14 14 14 14 14 14 14 14 14 14 15 14 14 14 14 14 14 14 14 14 14 14 13 13 13 13 13 13 13 13
6 7 8 8 7 7 8 8 9 9 9 10 10 11 12 13 14 15 15 15 15 15 15 14 14 14 14 14 14 14 14 14 15 15 15 15 14 14 14 14 14 13 13 13 13 13 13 13 13
6 7 7 8 7 7 7 7 8 9 9 10 10 11 13 14 14 15 15 15 15 15 15 15 15 15 14 14 14 14 14 14 14 14 14 14 14 14 14 14 14 13 13 13 13 13 13 13 12
7 7 7 7 7 7 8 8 8 8 9 10 10 11 13 14 14 15 15 15 15 15 15 15 15 15 15 14 14 14 14 14 14 14 14 14 14 14 14 14 13 13 13 13 13 13 13 12 12
7 7 7 7 7 7 8 8 8 9 9 10 10 12 13 14 14 15 15 15 15 15 15 15 15 15 15 15 14 14 14 14 14 14 14 14 14 13 13 13 13 13 13 13 13 12 12 12 11
7 7 7 7 7 7 8 8 8 9 9 10 10 11 13 14 14 15 15 15 15 15 15 15 15 15 15 15 14 14 14 14 14 14 14 14 13 13 13 13 13 13 12 12 12 12 12 11 11
7 6 7 6 7 7 8 8 8 9 9 8 9 10 11 13 13 14 14 14 15 15 15 15 15 15 15 15 14 14 14 14 13 13 13 13 13 13 12 12 12 12 12 12 12 11 11 11 10
7 7 6 7 7 7 8 8 8 9 8 8 8 9 10 12 13 13 14 14 14 14 14 14 14 14 14 14 14 13 13 13 13 13 13 13 12 12 12 12 12 12 11 11 11 11 10 10 10
7 7 6 6 6 7 8 8 8 7 8 8 8 9 10 11 12 12 13 13 13 13 13 13 13 13 13 13 13 13 13 13 12 12 12 12 12 11 11 11 11 11 11 11 10 10 10 9 9
7 7 7 7 6 5 6 8 8 6 6 7 8 9 10 10 11 12 12 12 12 12 13 13 13 12 12 12 12 12 12 12 11 11 11 11 11 11 11 10 10 10 10 10 10 9 9 8 8
Wind_Speed
11 8 1 3 3 3 9 8 5 4 5 4 3 2 4 5 5 4 2 9 16 17 19 23 23 21 20 19 18 17 16 16 17 19 20 21 21 21 21 20 20 20 20 19 19 18 18 16 15
7 2 2 3 6 9 8 9 9 9 6 1 1 2 1 1 2 5 7 10 17 16 19 20 23 22 20 19 18 17 16 16 17 18 20 21 21 20 20 20 19 19 19 18 18 17 16 15 13
5 1 2 4 7 12 8 8 12 10 5 2 1 0 2 2 5 6 8 15 14 13 17 21 23 22 21 19 19 18 17 17 18 18 19 20 20 20 19 19 18 18 18 17 16 15 14 14 13
1 1 1 6 13 11 9 6 6 7 4 4 4 2 1 1 4 6 14 16 15 12 16 21 22 21 20 19 19 18 18 17 18 19 19 20 19 19 18 18 17 17 16 16 15 14 13 13 13
1 2 6 9 13 9 9 10 6 5 6 5 5 5 3 2 5 13 17 16 15 12 15 21 22 21 20 19 19 19 18 18 18 19 19 19 19 18 17 17 16 16 15 14 14 13 12 12 12
1 3 8 13 14 11 11 10 7 6 6 6 6 5 2 3 11 15 16 15 13 13 13 19 21 20 19 19 19 19 19 18 18 18 18 18 18 17 16 15 15 14 14 13 12 11 11 11 11
3 5 8 10 12 12 13 9 8 8 7 7 7 5 3 6 11 15 14 13 12 11 11 13 17 17 18 18 19 18 19 18 17 17 17 17 17 16 15 14 14 13 12 11 10 10 9 9 9
3 4 7 9 11 13 10 6 7 9 8 5 7 8 7 9 12 15 13 12 11 10 11 10 13 14 14 16 18 18 18 18 17 16 17 16 16 15 14 13 12 11 10 9 8 7 7 6 6
1 6 10 10 10 9 6 6 6 4 5 4 5 5 7 15 16 16 13 11 11 12 10 10 10 11 13 13 16 17 18 18 17 16 16 15 13 12 11 10 10 9 8 7 6 5 4 4 4
5 8 10 7 6 4 5 6 7 3 4 3 2 2 12 17 19 19 18 17 15 14 12 10 11 10 11 11 12 13 13 15 14 14 14 12 11 10 9 9 8 8 6 5 3 2 3 3 3
5 8 6 7 6 5 5 5 4 6 7 5 6 8 15 17 17 18 17 17 16 15 13 11 11 10 10 8 10 10 10 11 12 14 13 12 10 8 7 7 6 5 4 3 1 1 1 1 2
5 6 7 7 6 5 7 5 4 6 7 5 8 12 17 18 18 18 18 17 15 14 13 12 11 10 9 9 8 9 9 9 9 12 13 11 7 6 6 5 5 5 4 3 2 1 1 2 3
8 7 7 8 8 6 7 7 5 6 4 2 4 11 15 16 17 16 15 15 14 15 14 13 12 12 10 8 7 8 8 9 11 12 13 12 8 5 6 5 6 5 5 4 3 3 2 3 4
5 6 8 8 8 6 7 8 4 5 3 2 4 10 12 13 13 13 13 13 14 14 15 13 13 12 10 9 7 7 10 11 11 11 13 14 11 8 6 5 6 6 7 6 5 4 3 3 3
4 4 6 7 8 4 4 8 6 4 4 2 4 6 7 8 9 14 16 16 15 15 15 15 15 13 12 10 9 8 10 11 10 11 14 14 13 11 8 5 5 7 9 7 5 4 3 2 2
2 3 4 4 6 5 5 9 4 3 3 3 3 5 5 6 7 8 11 13 13 13 13 14 13 13 12 10 9 7 9 10 10 12 13 14 14 13 10 5 5 8 8 6 3 3 2 2 3
2 4 5 3 4 3 6 6 3 3 3 3 3 3 4 4 5 5 6 9 11 12 13 13 12 13 12 10 8 7 7 8 9 10 11 13 14 14 11 7 6 8 6 4 3 3 3 2 3
4 4 3 3 3 4 5 4 3 3 3 3 2 2 4 5 5 4 5 6 9 10 11 12 12 12 10 8 6 5 5 5 7 8 10 13 13 14 12 7 7 7 4 3 3 3 2 2 2
3 3 3 3 3 3 3 4 5 4 4 4 3 3 4 4 3 4 5 6 7 9 11 13 13 12 10 7 7 6 7 6 5 6 10 12 12 13 10 6 5 5 5 5 5 3 3 2 1
4 3 2 1 2 2 1 3 4 4 4 5 5 5 5 5 3 3 4 5 8 10 11 12 12 11 11 9 8 5 5 4 5 4 6 9 10 11 10 7 6 5 5 5 4 3 2 1 1
2 3 3 3 2 2 2 3 3 4 4 6 6 6 5 6 7 5 4 4 6 8 10 11 11 10 10 10 6 4 3 2 3 5 5 6 8 9 8 7 5 4 5 4 4 4 4 2 1
1 2 3 4 4 1 2 1 4 5 5 8 7 6 7 6 5 5 4 5 5 6 7 8 9 10 9 9 8 8 7 7 7 5 4 4 5 6 8 7 6 5 4 4 4 3 3 3 2
2 1 2 3 3 2 1 1 5 2 5 9 9 9 8 6 6 6 5 5 4 3 4 5 6 6 7 8 9 9 8 6 4 4 5 4 4 4 6 6 5 5 4 4 4 3 3 2 3
1 3 4 3 2 0 3 3 4 3 6 7 8 8 7 6 5 4 3 2 2 2 3 3 5 5 6 8 8 9 9 8 7 7 6 5 3 3 4 5 4 4 4 4 4 3 3 2 2
2 3 3 2 1 2 1 2 5 5 6 7 8 8 6 5 4 3 3 2 3 3 3 4 5 5 5 6 6 7 8 8 8 8 8 7 5 3 4 4 4 4 4 4 4 3 2 2 2
1 2 3 3 2 1 1 2 6 5 5 3 3 2 2 3 2 2 2 2 2 2 2 3 3 3 4 5 5 4 5 5 5 6 6 6 5 5 6 6 5 5 5 5 4 3 2 1 1
2 1 1 4 2 2 1 4 6 5 7 6 4 2 1 1 1 1 1 1 1 2 2 2 2 2 3 3 3 3 4 5 5 5 5 5 5 6 7 7 7 6 6 5 4 3 2 1 1
1 2 2 3 3 1 2 3 4 7 7 7 6 5 4 3 3 3 3 3 2 2 2 2 2 2 2 2 3 3 3 4 5 6 6 6 6 7 8 7 7 6 5 5 5 3 2 2 1
1 2 2 3 2 3 1 2 3 5 5 3 3 5 5 6 4 4 4 4 4 3 3 2 2 2 2 2 3 4 4 5 6 6 6 7 6 7 8 7 7 6 5 5 4 3 2 1 1
1 1 2 2 1 2 3 3 6 4 3 1 4 5 6 6 5 5 5 5 5 4 3 2 1 1 2 2 3 4 4 5 6 6 7 7 8 7 7 7 7 6 5 4 4 3 2 2 1
Wind_Direction
316 325 20 70 103 197 227 226 226 228 217 202 184 167 168 169 182 214 106 138 138 144 150 148 146 143 141 138 134 131 128 128 126 127 127 126 124 123 121 120 119 118 117 114 110 106 102 99 97
317 321 69 111 182 213 229 216 222 226 218 179 130 131 106 159 118 121 139 145 141 143 146 147 146 144 142 140 138 135 132 132 130 128 126 125 124 124 123 121 120 119 117 115 111 107 103 99 99
312 247 173 166 204 213 220 212 219 233 238 201 158 98 158 171 142 146 147 145 138 139 143 147 145 145 144 143 141 138 135 134 133 130 127 126 125 124 123 122 121 120 119 118 114 109 104 100 100
1 83 181 207 221 218 215 221 207 219 236 218 169 200 223 122 153 144 143 145 138 136 141 147 145 146 146 145 142 140 138 137 135 132 129 128 127 126 125 124 123 123 122 121 117 111 105 101 101
77 163 210 224 228 229 225 236 232 210 206 209 181 191 218 346 128 136 146 146 142 138 141 145 145 147 149 148 145 143 141 141 139 136 133 131 129 129 128 127 126 126 125 123 120 114 107 103 102
173 191 213 223 226 230 231 229 232 232 222 211 187 187 210 137 136 143 149 147 144 142 141 145 147 149 151 151 147 145 144 144 143 140 138 136 134 133 133 132 131 129 128 126 122 116 108 103 101
187 206 221 222 227 233 231 217 218 222 230 214 174 171 159 150 147 144 145 143 142 141 138 141 145 150 152 151 149 147 146 146 146 144 142 140 139 139 138 137 135 133 130 128 124 119 110 102 97
197 213 222 221 224 235 230 209 219 215 228 205 170 176 176 164 148 139 141 145 144 143 142 138 140 146 150 152 151 149 148 148 148 145 142 142 142 143 142 141 138 136 135 132 127 119 108 94 85
196 228 224 216 216 233 225 213 232 235 199 198 203 190 169 150 146 142 146 152 155 154 149 144 142 145 148 151 154 152 151 150 149 146 145 143 143 144 143 144 142 141 141 139 134 121 102 85 71
196 229 232 228 222 247 245 224 217 215 201 206 184 115 141 156 155 155 162 165 167 166 160 154 150 149 150 154 151 151 149 150 149 150 149 148 147 147 148 153 153 152 150 149 141 115 83 65 42
211 228 253 264 267 272 269 251 226 194 212 199 182 160 156 166 166 164 169 171 172 170 167 162 157 154 153 149 151 149 149 150 152 156 156 154 152 151 152 156 163 164 163 159 146 76 46 16 350
247 250 259 274 289 276 271 268 255 215 222 211 195 170 169 174 177 174 174 175 171 170 172 166 161 159 159 156 158 157 158 160 161 165 164 160 157 160 163 171 179 182 184 187 199 227 274 295 297
240 259 264 271 280 279 280 261 247 256 279 278 191 171 177 179 185 183 177 173 170 172 174 171 168 166 162 159 165 168 170 173 173 172 176 174 171 173 178 185 192 200 202 202 210 226 254 281 293
240 244 265 269 267 268 268 267 252 270 322 327 186 177 183 185 184 178 176 177 179 180 178 174 175 172 165 166 172 176 180 180 178 182 186 186 185 183 182 188 197 206 210 212 215 226 239 263 279
250 254 275 255 243 242 251 261 241 291 325 287 199 175 186 193 182 182 184 185 184 184 183 179 179 175 173 173 177 182 186 183 186 190 191 192 193 193 190 189 200 212 212 210 212 223 227 249 261
219 219 246 241 209 218 205 243 263 346 339 275 215 182 187 202 190 187 190 190 188 183 183 181 182 179 180 178 176 180 186 188 191 191 193 197 200 199 192 192 205 209 201 194 189 191 210 240 251
195 213 222 245 205 196 202 239 289 360 341 280 236 210 201 208 193 189 199 196 189 186 183 183 185 182 183 182 176 178 184 191 195 192 193 198 201 199 192 197 203 195 184 184 184 183 190 224 248
198 196 196 206 209 183 201 243 305 353 331 296 277 252 225 218 205 200 202 203 199 193 190 189 190 184 179 175 166 170 184 190 193 194 197 196 198 196 192 194 192 180 168 177 178 185 189 211 238
239 182 190 223 224 177 195 252 284 317 314 306 298 283 260 250 226 205 203 200 198 198 199 199 196 187 175 177 184 188 200 193 195 198 199 196 194 192 189 187 179 174 180 186 179 173 190 218 192
223 190 198 168 184 146 176 262 271 269 272 268 262 259 250 247 238 225 210 193 192 197 201 200 199 190 182 189 191 186 179 189 195 195 199 195 191 188 189 184 184 176 175 175 176 171 168 193 153
233 184 179 142 99 85 106 300 259 250 250 260 251 244 237 232 234 233 222 209 200 198 197 198 197 194 196 193 177 157 149 145 181 197 197 193 187 187 183 179 171 170 174 180 179 172 173 194 190
277 204 166 136 120 102 137 297 271 231 242 248 249 247 241 237 233 237 223 218 215 209 196 194 193 192 194 189 185 180 191 203 205 196 188 171 176 177 174 168 166 167 169 168 166 160 164 170 201
246 212 134 123 117 102 131 147 289 229 238 245 241 238 239 237 231 238 235 223 219 213 201 192 183 185 187 186 188 191 202 206 187 166 166 167 164 163 162 160 155 157 159 153 146 146 155 171 191
210 87 75 64 79 127 192 167 282 234 233 246 236 235 234 236 236 238 237 208 210 192 184 176 174 183 181 184 187 194 200 193 180 181 181 175 158 144 142 134 133 137 141 139 138 134 143 158 192
91 93 78 57 67 259 170 172 260 264 254 241 238 235 237 227 221 231 226 209 207 192 181 177 178 182 176 177 188 193 196 191 193 191 184 173 167 162 151 135 130 126 121 118 120 121 127 143 184
116 105 135 141 165 339 86 245 274 301 312 289 245 221 215 226 205 210 202 186 195 175 157 166 170 173 168 174 181 181 181 184 188 183 173 173 169 156 143 134 126 120 115 111 106 107 113 135 170
123 108 162 113 88 81 284 300 317 351 9 15 35 77 132 170 135 123 101 113 116 126 136 157 156 146 147 156 153 158 163 165 164 154 149 146 140 137 136 133 127 123 116 113 113 112 117 130 167
120 142 83 95 115 85 353 336 321 334 348 7 33 49 55 65 63 57 56 59 55 69 78 86 112 132 130 131 140 142 144 143 143 142 144 141 138 135 135 129 125 121 115 114 112 114 129 149 171
47 74 83 82 106 132 120 305 315 291 307 346 34 45 51 59 54 41 39 44 52 52 58 68 80 100 118 130 130 131 130 131 133 136 138 135 131 134 134 132 128 124 118 113 113 122 131 145 156
267 172 138 122 96 111 130 291 329 318 309 52 59 47 46 54 52 47 45 43 42 41 41 46 64 108 143 141 135 136 132 128 128 130 132 131 130 130 130 129 126 125 121 117 121 127 124 142 167
Height
1497 1499 1501 1504 1507 1511 1507 1500 1494 1491 1489 1488 1488 1489 1489 1491 1495 1498 1491 1490 1495 1500 1505 1509 1513 1516 1518 1520 1522 1524 1526 1528 1530 1532 1534 1537 1539 1541 1543 1545 1547 1548 1550 1551 1553 1554 1555 1556 1557
1495 1497 1501 1501 1504 1507 1502 1494 1491 1487 1485 1485 1486 1488 1488 1488 1489 1489 1488 1491 1496 1500 1505 1509 1513 1516 1518 1520 1523 1525 1527 1529 1531 1533 1536 1538 1540 1542 1545 1546 1548 1550 1552 1553 1555 1556 1557 1558 1559
1493 1495 1498 1498 1498 1496 1493 1487 1486 1483 1484 1484 1485 1486 1487 1488 1488 1489 1489 1492 1497 1501 1505 1509 1513 1516 1518 1521 1523 1525 1527 1529 1532 1534 1537 1539 1541 1544 1546 1548 1550 1552 1553 1555 1556 1558 1559 1560 1561
1491 1493 1494 1495 1491 1486 1484 1481 1481 1482 1484 1483 1484 1486 1487 1488 1488 1489 1490 1493 1497 1501 1506 1509 1513 1516 1519 1521 1524 1526 1528 1530 1532 1535 1538 1540 1542 1545 1547 1549 1551 1553 1555 1557 1558 1559 1561 1562 1562
1489 1490 1492 1489 1485 1481 1479 1479 1479 1481 1481 1481 1482 1483 1484 1486 1487 1489 1492 1495 1498 1502 1506 1510 1513 1516 1519 1522 1524 1527 1529 1531 1533 1536 1538 1541 1543 1546 1549 1551 1553 1555 1556 1558 1559 1561 1562 1563 1564
1488 1487 1488 1484 1482 1478 1476 1476 1478 1479 1478 1479 1481 1481 1483 1485 1487 1490 1493 1496 1500 1503 1507 1510 1514 1517 1519 1522 1525 1527 1529 1532 1534 1536 1539 1542 1544 1547 1550 1552 1554 1556 1558 1559 1561 1562 1563 1564 1565
1485 1484 1481 1480 1479 1476 1472 1473 1475 1476 1476 1476 1478 1481 1482 1485 1486 1489 1493 1497 1501 1504 1507 1510 1514 1517 1520 1523 1525 1528 1530 1532 1535 1537 1540 1543 1545 1548 1551 1553 1555 1557 1559 1560 1562 1563 1564 1565 1566
1481 1483 1479 1478 1477 1472 1469 1471 1471 1473 1473 1474 1476 1478 1479 1482 1486 1489 1493 1498 1502 1505 1507 1510 1514 1517 1520 1523 1526 1528 1531 1533 1536 1538 1541 1544 1547 1549 1552 1554 1556 1558 1560 1561 1562 1563 1564 1565 1566
1480 1481 1476 1473 1472 1469 1467 1469 1469 1470 1471 1471 1473 1474 1475 1480 1483 1487 1493 1497 1501 1504 1507 1510 1513 1517 1520 1523 1526 1528 1531 1534 1536 1539 1542 1545 1547 1549 1552 1554 1556 1558 1560 1561 1562 1563 1564 1565 1565
1477 1476 1471 1468 1467 1466 1466 1466 1467 1468 1468 1469 1471 1473 1475 1478 1480 1484 1489 1494 1498 1502 1506 1509 1513 1516 1519 1522 1525 1528 1531 1534 1537 1539 1542 1545 1548 1550 1552 1554 1556 1558 1559 1561 1562 1563 1564 1565 1565
1473 1472 1468 1466 1466 1466 1465 1465 1464 1466 1467 1467 1469 1470 1474 1476 1478 1481 1486 1490 1495 1500 1504 1508 1512 1515 1518 1522 1525 1528 1531 1534 1536 1539 1542 1545 1547 1550 1552 1554 1556 1557 1559 1560 1561 1562 1563 1564 1564
1471 1467 1467 1465 1465 1465 1465 1464 1463 1463 1463 1464 1466 1468 1471 1474 1476 1478 1483 1488 1493 1498 1502 1506 1510 1514 1518 1521 1524 1527 1530 1533 1536 1539 1542 1544 1547 1549 1551 1553 1555 1556 1558 1559 1560 1561 1562 1563 1563
1468 1466 1465 1465 1465 1464 1464 1463 1462 1460 1460 1461 1463 1465 1469 1471 1474 1477 1481 1486 1490 1495 1500 1505 1509 1513 1516 1520 1523 1526 1529 1532 1535 1538 1541 1543 1546 1548 1550 1552 1554 1555 1556 1558 1559 1560 1561 1561 1562
1465 1465 1464 1463 1463 1462 1463 1461 1460 1458 1458 1459 1461 1463 1466 1468 1471 1475 1479 1484 1488 1492 1497 1502 1507 1511 1515 1518 1521 1525 1528 1531 1534 1537 1540 1542 1545 1547 1549 1550 1552 1554 1555 1556 1557 1558 1559 1560 1560
1464 1464 1462 1460 1461 1461 1463 1460 1458 1457 1457 1458 1460 1462 1465 1467 1469 1472 1476 1480 1485 1490 1495 1499 1504 1509 1513 1517 1520 1523 1526 1529 1532 1535 1538 1540 1543 1545 1547 1548 1550 1552 1553 1554 1555 1556 1557 1558 1558
1462 1463 1463 1458 1458 1459 1464 1459 1455 1456 1457 1457 1458 1460 1463 1466 1468 1471 1475 1479 1484 1488 1493 1497 1502 1506 1510 1514 1518 1522 1525 1527 1530 1533 1536 1538 1541 1543 1545 1546 1548 1549 1551 1552 1553 1554 1555 1555 1556
1463 1463 1461 1458 1455 1456 1459 1457 1454 1454 1456 1456 1457 1459 1462 1465 1468 1471 1474 1477 1482 1486 1491 1495 1499 1504 1508 1512 1516 1520 1523 1525 1528 1531 1533 1536 1538 1540 1542 1544 1546 1547 1548 1549 1551 1552 1552 1553 1553
1463 1461 1458 1458 1455 1456 1457 1456 1454 1455 1456 1456 1457 1459 1461 1464 1466 1470 1474 1477 1480 1484 1488 1492 1497 1502 1506 1510 1513 1517 1520 1523 1526 1528 1531 1533 1535 1537 1539 1541 1543 1544 1545 1547 1548 1549 1550 1550 1550
1459 1458 1457 1457 1454 1455 1456 1456 1455 1455 1456 1456 1457 1458 1460 1462 1465 1469 1472 1475 1478 1482 1486 1490 1495 1498 1502 1507 1510 1513 1516 1519 1523 1525 1528 1530 1532 1534 1536 1538 1540 1541 1542 1544 1545 1546 1547 1547 1547
1457 1457 1456 1455 1453 1454 1456 1456 1455 1454 1455 1456 1456 1457 1459 1461 1464 1466 1469 1472 1475 1479 1482 1487 1492 1495 1499 1503 1506 1510 1513 1516 1519 1521 1524 1526 1528 1531 1532 1534 1536 1538 1540 1541 1542 1543 1544 1544 1544
1455 1455 1454 1454 1455 1455 1457 1457 1455 1453 1454 1454 1454 1455 1457 1459 1461 1464 1466 1470 1474 1477 1480 1483 1487 1491 1494 1499 1503 1506 1509 1512 1514 1517 1519 1522 1524 1527 1529 1531 1533 1535 1536 1538 1539 1540 1540 1541 1541
1455 1453 1452 1452 1456 1460 1459 1461 1454 1452 1452 1451 1450 1452 1453 1456 1458 1461 1464 1467 1471 1474 1478 1481 1484 1487 1491 1495 1498 1501 1504 1507 1510 1513 1516 1518 1520 1522 1524 1527 1529 1531 1533 1534 1535 1536 1536 1537 1537
1455 1452 1452 1453 1457 1461 1460 1463 1457 1452 1451 1448 1447 1448 1450 1453 1456 1459 1462 1465 1469 1472 1475 1479 1482 1484 1488 1491 1494 1497 1500 1504 1506 1509 1511 1514 1516 1518 1520 1523 1525 1527 1528 1530 1531 1532 1532 1532 1532
1453 1453 1454 1456 1459 1463 1460 1462 1459 1453 1448 1444 1443 1444 1447 1450 1453 1457 1460 1463 1467 1470 1473 1476 1480 1482 1485 1488 1491 1494 1497 1500 1502 1504 1506 1509 1512 1514 1516 1519 1521 1522 1524 1525 1526 1527 1527 1527 1527
1454 1458 1462 1463 1465 1463 1459 1459 1457 1447 1445 1443 1442 1442 1444 1448 1451 1454 1457 1461 1465 1468 1471 1475 1478 1480 1483 1485 1488 1490 1493 1496 1498 1500 1503 1505 1507 1510 1512 1514 1516 1518 1519 1520 1521 1522 1522 1523 1523
1456 1458 1463 1464 1463 1464 1460 1459 1453 1445 1443 1440 1440 1441 1444 1446 1450 1453 1456 1460 1463 1466 1469 1472 1475 1477 1480 1482 1485 1487 1490 1492 1494 1496 1499 1501 1503 1505 1508 1510 1512 1514 1515 1516 1517 1517 1517 1518 1518
1457 1459 1459 1463 1464 1464 1462 1459 1451 1445 1443 1442 1441 1442 1444 1446 1449 1452 1455 1459 1462 1465 1467 1470 1472 1475 1477 1479 1481 1484 1486 1488 1490 1492 1495 1497 1499 1501 1504 1506 1507 1509 1510 1511 1512 1512 1513 1513 1513
1456 1457 1461 1462 1463 1464 1462 1461 1460 1451 1449 1446 1445 1445 1445 1447 1450 1453 1455 1458 1461 1464 1466 1468 1471 1473 1474 1476 1478 1480 1482 1484 1486 1488 1490 1493 1495 1497 1499 1501 1503 1505 1506 1506 1507 1507 1508 1508 1508
1458 1458 1461 1465 1465 1467 1465 1465 1457 1456 1453 1451 1449 1449 1449 1450 1451 1454 1456 1458 1461 1463 1465 1467 1469 1470 1472 1474 1475 1477 1479 1480 1482 1484 1486 1488 1491 1493 1495 1497 1498 1500 1501 1501 1502 1502 1502 1502 1502
1458 1458 1460 1463 1467 1472 1471 1469 1456 1456 1453 1452 1452 1452 1452 1452 1454 1455 1457 1459 1460 1462 1463 1465 1466 1468 1469 1471 1472 1473 1475 1477 1478 1480 1482 1484 1486 1489 1491 1492 1494 1495 1496 1496 1497 1497 1497 1497 1497